Location: Brienzwiler
(46.7508°N, 8.1014°E)
Time: 00:46:57
(UTC+00:00)

SeaSat 1 - Pass Details

Date: 05 July 2020
Orbit: 744 x 748 km, 108.0° (Epoch: 11 August)

Event Time Altitude Azimuth Distance (km) Brightness Sun altitude
Rises 23:43:44 0° 41° (NE) 3,199 6.5 -20.5°
Reaches altitude 10° 23:46:36 10° 58° (ENE) 2,270 5.4 -20.5°
Maximum altitude 23:50:12 20° 105° (ESE) 1,677 4.1 -20.5°
Enters shadow 23:51:17 19° 123° (ESE) 1,737 4.1 -20.5°
